Content
SEND FEEDBACK

Daily
Averages
Monthly
Summary
United States of America

MOUNT SHASTA, CALIFORNIA


Home > North America > United States > California
Elevation: 1121 meters     Latitude: 41 19N     Longitude: 122 19W

WEATHER
 
SELECT A DAY
Number of Records: 231,359;   Date Range: 1/1/95 - 7/29/14
 
SHARE

PRINT THIS DATA

[ ← Previous Day ]
WEATHER ALMANAC - 12 NOVEMBER, 2013
[ Next Day → ]
[ °F ]   °C
Weather ElementAverageHighLow
Temperature13.4 °C17.2 °C (11:56 am)7.2 °C (11:56 pm)
Dewpoint-0.8 °C5 °C (10:56 pm)-4.4 °C (1:56 am)
Humidity39.5 %68 % (10:56 pm)25 % (10:56 am)
Barometer1026.8 hPa1028.8 hPa (8:56 pm)1023.7 hPa (1:56 am)
Wind Speed1.8 km/h7.4 km/h (3:56 am)
Weather ElementAverage
Visibility16.1 km
Wind DirectionNNE (39.1 °)

Weather ElementTotal
Precipitation---
Heating Degree Days6.1 (Base 18.3)
Growing Degree Days2.2 (Base 10)
Averaged from 23 records on 12 November, 2013
WEATHER CONDITIONS BREAKOUT
WIND DIRECTION BREAKOUT
WEATHER BY HOUR - 12 NOVEMBER, 2013
[ °F ]   °C
Local TimeTemperatureDewpointHumidityBarometerVisibilityWind DirectionWind SpeedGust SpeedPrecipitationEventsConditions
1:56 AM11.7 °C-4.4 °C32 %1023.7 hPa16.1 kmCalmOvercast
2:56 AM12.8 °C-4.4 °C30 %1024.7 hPa16.1 kmESE (120°)5.6 km/hOvercast
3:56 AM13.3 °C-4.4 °C29 %1025.4 hPa16.1 kmSE (130°)7.4 km/hMostly Cloudy
4:56 AM13.3 °C-3.9 °C30 %1025.4 hPa16.1 kmCalmMostly Cloudy
5:56 AM11.7 °C-3.3 °C35 %1025.1 hPa16.1 kmSSW (210°)5.6 km/hScattered Clouds
6:56 AM10.6 °C-3.9 °C36 %1026.4 hPa16.1 kmCalmClear
7:56 AM10 °C-2.8 °C41 %1027.1 hPa16.1 kmCalmScattered Clouds
8:56 AM10.6 °C-1.7 °C43 %1027.8 hPa16.1 kmCalmClear
9:56 AM15.6 °C-1.7 °C31 %1027.4 hPa16.1 kmEast (100°)5.6 km/hClear
10:56 AM16.7 °C-3.3 °C25 %1027.4 hPa16.1 kmVariable5.6 km/hMostly Cloudy
11:56 AM17.2 °C-2.8 °C26 %1026.4 hPa16.1 kmCalmMostly Cloudy
12:56 PM17.2 °C-2.2 °C27 %1026.4 hPa16.1 kmCalmOvercast
1:56 PM17.2 °C-2.8 °C26 %1026.1 hPa16.1 kmCalmOvercast
2:56 PM17.2 °C-1.1 °C29 %1026.1 hPa16.1 kmCalmOvercast
3:56 PM16.1 °C0 °C34 %1026.4 hPa16.1 kmCalm0 mmMostly Cloudy
4:56 PM14.4 °C1.7 °C42 %1026.8 hPa16.1 kmCalmOvercast
5:56 PM13.3 °C2.2 °C47 %1027.4 hPa16.1 kmCalmOvercast
6:56 PM13.9 °C2.2 °C45 %1028.1 hPa16.1 kmWNW (300°)5.6 km/hOvercast
7:56 PM13.3 °C3.9 °C53 %1028.1 hPa16.1 kmCalmOvercast
8:56 PM13.3 °C4.4 °C55 %1028.8 hPa16.1 kmCalmOvercast
9:56 PM12.2 °C4.4 °C59 %1028.4 hPa16.1 kmCalmOvercast
10:56 PM10.6 °C5 °C68 %1028.4 hPa16.1 kmCalmScattered Clouds
11:56 PM7.2 °C1.1 °C65 %1028.8 hPa16.1 kmNE (40°)5.6 km/hClear
Hourly data recorded from KMHS, located 0 kilometers away from Mount Shasta, California







STORIES FROM OUR PARTNERS